Hereford, TX

11:49 PM CDT on August 16, 2017 (GMT -0500)
Hereford Municipal

Weather History for KHRX - September, 2013

Change the Weather History Date:

Monday, September 30, 2013

  Actual Average (KCVN) Record (KCVN)
Temperature  
Mean Temperature 67 °F -  
Max Temperature 89 °F 79 °F 94 °F (1929)
Min Temperature 45 °F 50 °F 31 °F (1945)
Cooling Degree Days 2    
Growing Degree Days 17 (Base 50)    
Moisture  
Dew Point 30 °F    
Average Humidity 30    
Maximum Humidity 59    
Minimum Humidity 9    
Precipitation  
Precipitation 0.00 in - - ()
Sea Level Pressure  
Sea Level Pressure 29.89 in    
Wind  
Wind Speed 7 mph (SSW)    
Max Wind Speed 13 mph    
Max Gust Speed 16 mph    
Visibility 10 miles    
Events      
Averages and records for this station are not official NWS values.
T = Trace of Precipitation, MM = Missing Value Source: NWS Daily Summary

Daily Weather History Graph

Daily Weather History Graph

Search for Another Location

Airport or City:

Trip Planner

Search our weather history database for the weather conditions in past years. The results will help you decide how hot, cold, wet, or windy it might be!

Date:

Astronomy

Sep. 30, 2013 Rise Set
Actual Time 7:43 AM CDT 7:34 PM CDT
Civil Twilight 7:18 AM CDT 7:59 PM CDT
Nautical Twilight 6:48 AM CDT 8:28 PM CDT
Astronomical Twilight 6:19 AM CDT 8:58 PM CDT
Moon 3:31 AM CDT (9/30) 4:58 PM CDT (9/30)
Length of Visible Light 12h 41m
Length of Day
11h 50m
Waning Crescent, 19% of the Moon is Illuminated
Sep 30
Waning Crescent
Oct 4
New
Oct 11
First Quarter
Oct 18
Full
Oct 26
Last Quarter

Hourly Weather History & Observations

Time (CDT) Temp. Windchill Dew Point Humidity Pressure Visibility Wind Dir Wind Speed Gust Speed Precip Events Conditions
12:15 AM 57.9 °F - 33.4 °F 40% 29.96 in 10.0 mi SSW 9.2 mph - N/A   Clear
12:35 AM 58.6 °F - 34.0 °F 40% 29.96 in 10.0 mi SSW 8.1 mph - N/A   Clear
12:55 AM 56.5 °F - 34.5 °F 44% 29.95 in 10.0 mi South 5.8 mph - N/A   Clear
1:15 AM 55.9 °F - 34.9 °F 45% 29.94 in 10.0 mi SSW 5.8 mph - N/A   Clear
1:35 AM 57.4 °F - 34.0 °F 41% 29.94 in 10.0 mi SW 9.2 mph - N/A   Clear
1:55 AM 59.5 °F - 33.3 °F 37% 29.93 in 10.0 mi SW 11.5 mph 16.1 mph N/A   Clear
2:15 AM 60.1 °F - 32.9 °F 36% 29.93 in 10.0 mi SW 12.7 mph - N/A   Clear
2:35 AM 59.9 °F - 32.7 °F 36% 29.92 in 10.0 mi SW 12.7 mph - N/A   Clear
2:55 AM 59.7 °F - 32.2 °F 35% 29.92 in 10.0 mi WSW 10.4 mph - N/A   Clear
3:15 AM 58.5 °F - 32.9 °F 38% 29.91 in 10.0 mi WSW 11.5 mph - N/A   Clear
3:35 AM 57.7 °F - 32.5 °F 39% 29.91 in 10.0 mi WSW 10.4 mph - N/A   Clear
3:55 AM 56.3 °F - 32.4 °F 40% 29.91 in 10.0 mi SW 6.9 mph - N/A   Clear
4:15 AM 54.5 °F - 32.4 °F 43% 29.90 in 10.0 mi WSW 9.2 mph - N/A   Clear
4:35 AM 53.6 °F - 32.2 °F 44% 29.90 in 10.0 mi WSW 9.2 mph - N/A   Clear
4:55 AM 53.6 °F - 32.0 °F 44% 29.90 in 10.0 mi WSW 8.1 mph - N/A   Clear
5:15 AM 52.9 °F - 32.0 °F 45% 29.90 in 10.0 mi WSW 9.2 mph - N/A   Clear
5:35 AM 52.3 °F - 31.8 °F 46% 29.90 in 10.0 mi WSW 9.2 mph - N/A   Clear
5:55 AM 50.4 °F - 32.0 °F 49% 29.90 in 10.0 mi WSW 8.1 mph - N/A   Clear
6:15 AM 50.0 °F - 31.6 °F 49% 29.90 in 10.0 mi West 10.4 mph - N/A   Clear
6:35 AM 49.1 °F - 31.8 °F 51% 29.90 in 10.0 mi West 6.9 mph - N/A   Clear
6:55 AM 48.2 °F - 31.5 °F 52% 29.90 in 10.0 mi WSW 6.9 mph - N/A   Clear
7:15 AM 49.1 °F - 31.3 °F 50% 29.90 in 10.0 mi WSW 6.9 mph - N/A   Clear
7:35 AM 46.8 °F - 31.6 °F 56% 29.91 in 10.0 mi WSW 5.8 mph - N/A   Clear
7:55 AM 45.5 °F 41.8 °F 31.8 °F 59% 29.91 in 10.0 mi West 6.9 mph - N/A   Clear
8:15 AM 46.4 °F 43.5 °F 32.0 °F 57% 29.91 in 10.0 mi West 5.8 mph - N/A   Clear
8:35 AM 49.1 °F - 32.2 °F 52% 29.91 in 10.0 mi West 8.1 mph - N/A   Clear
8:55 AM 52.2 °F - 32.2 °F 47% 29.91 in 10.0 mi WSW 5.8 mph - N/A   Clear
9:15 AM 54.5 °F - 32.0 °F 42% 29.91 in 10.0 mi West 6.9 mph - N/A   Clear
9:35 AM 58.5 °F - 32.2 °F 37% 29.91 in 10.0 mi West 4.6 mph - N/A   Clear
9:55 AM 62.6 °F - 32.5 °F 32% 29.91 in 10.0 mi West 5.8 mph - N/A   Clear
10:15 AM 68.4 °F - 33.4 °F 27% 29.91 in 10.0 mi WNW 3.5 mph - N/A   Clear
10:35 AM 73.4 °F - 30.0 °F 20% 29.91 in 10.0 mi NNW 6.9 mph - N/A   Clear
10:55 AM 76.3 °F - 31.5 °F 19% 29.91 in 10.0 mi NNW 8.1 mph - N/A   Clear
11:15 AM 77.9 °F - 30.6 °F 18% 29.91 in 10.0 mi Calm Calm - N/A   Clear
11:35 AM 78.1 °F - 30.2 °F 17% 29.91 in 10.0 mi NNW 6.9 mph - N/A   Clear
11:55 AM 77.5 °F - 29.8 °F 17% 29.91 in 10.0 mi WNW 4.6 mph - N/A   Clear
12:15 PM 79.0 °F - 27.3 °F 15% 29.91 in 10.0 mi West 5.8 mph - N/A   Clear
12:35 PM 79.5 °F - 27.9 °F 15% 29.90 in 10.0 mi WNW 5.8 mph - N/A   Clear
12:55 PM 80.8 °F - 27.0 °F 14% 29.90 in 10.0 mi WNW 3.5 mph - N/A   Clear
1:15 PM 81.5 °F - 27.0 °F 14% 29.89 in 10.0 mi West 4.6 mph - N/A   Clear
1:35 PM 83.8 °F - 26.6 °F 12% 29.89 in 10.0 mi WNW 4.6 mph - N/A   Clear
1:55 PM 84.7 °F - 25.2 °F 11% 29.87 in 10.0 mi SW 3.5 mph - N/A   Clear
2:15 PM 86.0 °F - 23.0 °F 10% 29.87 in 10.0 mi South 3.5 mph - N/A   Clear
2:35 PM 87.6 °F - 24.4 °F 10% 29.86 in 10.0 mi ESE 4.6 mph - N/A   Clear
2:55 PM 88.3 °F - 22.5 °F 9% 29.85 in 10.0 mi SSE 4.6 mph - N/A   Clear
3:15 PM 88.0 °F - 21.6 °F 9% 29.85 in 10.0 mi East 4.6 mph - N/A   Clear
3:35 PM 88.5 °F - 23.4 °F 9% 29.85 in 10.0 mi East 5.8 mph - N/A   Clear
3:55 PM 88.7 °F - 22.8 °F 9% 29.84 in 10.0 mi ENE 3.5 mph - N/A   Clear
4:15 PM 89.8 °F - 23.2 °F 9% 29.84 in 10.0 mi SSE 4.6 mph - N/A   Clear
4:35 PM 88.9 °F - 24.1 °F 10% 29.84 in 10.0 mi SSE 4.6 mph - N/A   Clear
4:55 PM 89.1 °F - 22.8 °F 9% 29.84 in 10.0 mi East 6.9 mph - N/A   Clear
5:15 PM 88.7 °F - 23.7 °F 9% 29.84 in 10.0 mi ESE 6.9 mph - N/A   Clear
5:35 PM 88.0 °F - 24.8 °F 10% 29.84 in 10.0 mi ESE 5.8 mph - N/A   Clear
5:55 PM 87.4 °F - 26.6 °F 11% 29.84 in 10.0 mi SE 9.2 mph - N/A   Clear
6:15 PM 86.5 °F - 25.5 °F 11% 29.84 in 10.0 mi SE 10.4 mph 16.1 mph N/A   Clear
6:35 PM 85.1 °F - 26.4 °F 12% 29.84 in 10.0 mi ESE 10.4 mph - N/A   Clear
6:55 PM 83.1 °F - 25.3 °F 12% 29.84 in 10.0 mi SE 9.2 mph - N/A   Clear
7:15 PM 79.5 °F - 26.2 °F 14% 29.85 in 10.0 mi SE 9.2 mph - N/A   Clear
7:35 PM 77.2 °F - 29.1 °F 17% 29.85 in 10.0 mi SSE 9.2 mph - N/A   Clear
7:55 PM 72.9 °F - 29.7 °F 20% 29.85 in 10.0 mi South 8.1 mph - N/A   Clear
8:15 PM 69.3 °F - 29.8 °F 23% 29.86 in 10.0 mi South 8.1 mph - N/A   Clear
8:35 PM 65.5 °F - 33.1 °F 30% 29.86 in 10.0 mi ESE 6.9 mph - N/A   Clear
8:55 PM 62.6 °F - 35.6 °F 37% 29.86 in 10.0 mi ESE 6.9 mph - N/A   Clear
9:15 PM 62.6 °F - 36.3 °F 38% 29.87 in 10.0 mi SSE 5.8 mph - N/A   Clear
9:35 PM 62.1 °F - 35.8 °F 38% 29.87 in 10.0 mi South 3.5 mph - N/A   Clear
9:55 PM 62.6 °F - 35.4 °F 36% 29.88 in 10.0 mi Calm Calm - N/A   Clear
10:15 PM 62.1 °F - 35.1 °F 37% 29.88 in 10.0 mi SE 3.5 mph - N/A   Clear
10:35 PM 59.7 °F - 35.6 °F 41% 29.88 in 10.0 mi East 4.6 mph - N/A   Clear
10:55 PM 59.4 °F - 36.9 °F 43% 29.88 in 10.0 mi SE 6.9 mph - N/A   Clear
11:15 PM 59.4 °F - 36.7 °F 43% 29.88 in 10.0 mi SSE 5.8 mph - N/A   Clear
11:35 PM 58.3 °F - 36.7 °F 45% 29.88 in 10.0 mi Calm Calm - N/A   Clear
11:55 PM 59.0 °F - 36.5 °F 43% 29.88 in 10.0 mi SSE 3.5 mph - N/A   Clear